Regional Weather Roundup
Issued by NWS Spokane, WA

Home | Current Version | Previous Version | Text Only | Print | Product List | Glossary On
Versions: 1 2 3 4 5 6 7 8 9 10 11 12 13 14 15 16 17 18 19 20 21 22 23 24 25 26 27 28 29 30 31 32 33 34 35 36 37 38 39 40 41 42 43 44 45 46 47 48 49 50
977
NZUS01 KOTX 191710
RWROTX

Eastern Washington/Northern Idaho Roundup
National Weather Service, Spokane WA
1000 AM PDT THU OCT 19 2017

Note: "fair" indicated few or no clouds below 12,000 feet with no
significant weather and/or obstructions to visibility.

...Northeast Washington and Northern Idaho Panhandle...

CITY           SKY/WX    TMP DP  RH WIND       PRES   REMARKS
Spokane Intl   CLOUDY    56  40  55 S10       29.63S
Spokane Downto CLOUDY    58  40  51 SW7       29.64S
Coeur d Alene  CLOUDY    57  38  48 S8        29.65F
Deer Park      LGT RAIN  50  47  89 SE5       29.65S
Sandpoint      DRIZZLE   50  45  81 SW3       29.64F

...Southeast Washington and southern Idaho Panhandle...

CITY           SKY/WX    TMP DP  RH WIND       PRES   REMARKS
Walla Walla    CLOUDY    62  36  37 CALM      29.63S
Pullman/Moscow CLOUDY    57  38  48 E5        29.69S
Lewiston       CLOUDY    48  45  89 VRB3      29.68F
Lowell           N/A     50  40  68 CALM      29.76F
Grangeville    FAIR      63  27  25 SW9G16    29.71S

...Columbia Basin...

CITY           SKY/WX    TMP DP  RH WIND       PRES   REMARKS
Ephrata        CLOUDY    55  41  59 S5        29.58F
Moses Lake     CLOUDY    56  42  59 S5        29.60F
Pasco          CLOUDY    62  46  55 SW3       29.62S
Richland       CLOUDY    63  46  54 S8        29.61F
Hermiston      CLOUDY    58  39  49 CALM      29.62F HAZE
Pendleton      CLOUDY    57  35  43 NW7       29.63S

...East Slopes Cascades...

CITY           SKY/WX    TMP DP  RH WIND       PRES   REMARKS
The Dalles     CLOUDY    58  52  80 NW10      29.62F
Yakima         CLOUDY    59  47  64 E5        29.60F
Ellensburg     CLOUDY    52  45  77 NW8       29.61S
Stampede Pass  LGT RAIN  41  40  96 CALM      29.62R VSB 3/4
Wenatchee      CLOUDY    50  47  89 NE3       29.59S
Omak           CLOUDY    50  47  89 S8        29.56F
Sunnyside      CLOUDY    60  44  54 SW15      29.61S

...Southern British Columbia...

CITY           SKY/WX    TMP DP  RH WIND       PRES   REMARKS
Penticton      PTSUNNY   54  46  76 S15G22    29.49S
Castlegar      LGT RAIN  50  48  93 SE3       29.58S
Cranbrook      PTSUNNY   48  45  87 SE9       29.58S
Osoyoos          N/A     55  45  67 SE7         N/A
Creston          N/A     48  48 100 N1          N/A

...Western Montana...

CITY           SKY/WX    TMP DP  RH WIND       PRES   REMARKS
Kalispell      PTSUNNY   60  37  42 SW8       29.64S
Libby            N/A     61  30  31 S10       29.60S
Missoula       PTSUNNY   44  38  79 CALM      29.73F

...Neighboring Cities...

CITY           SKY/WX    TMP DP  RH WIND       PRES   REMARKS
Seattle        CLOUDY    53  51  93 S10       29.57F
Portland       LGT RAIN  53  52  96 S13       29.64F FOG
Boise          SUNNY     61  27  27 SE12      29.84S
Great Falls    CLOUDY    68  22  17 S14       29.67F
Calgary        PTSUNNY   54  36  50 S5        29.44R



USA.gov is the U.S. government's official web portal to all federal, state and local government web resources and services.